,,PA_Meas_PMT16A,,PR_Meas_QMR101_102,,RH_Meas_QMH101,,SR_Meas_QMS101,,TA_Meas_QMH101,,GenWind,,GenWind,
time,status,PA,status,PR,status,RH,status,SR,status,TA,status,DirAvg,status,SpdAvg,
2010-10-22, 00:00:04,VALID,917.206,VALID,0,VALID,91.3133,VALID,0,VALID,18.5705,VALID,356,VALID,0.142578,
2010-10-22, 00:01:04,VALID,917.176,VALID,0,VALID,91.0007,VALID,0,VALID,18.5705,VALID,356,VALID,0,
2010-10-22, 00:02:04,VALID,917.172,VALID,0,VALID,90.307,VALID,0,VALID,18.5511,VALID,356,VALID,0,
2010-10-22, 00:03:04,VALID,917.164,VALID,0,VALID,90.8787,VALID,0,VALID,18.572,VALID,356,VALID,0,
2010-10-22, 00:04:04,VALID,917.166,VALID,0,VALID,91.1074,VALID,0,VALID,18.5511,VALID,356,VALID,0,
2010-10-22, 00:05:04,VALID,917.141,VALID,0,VALID,91.1684,VALID,0,VALID,18.5511,VALID,356,VALID,0,
2010-10-22, 00:06:04,VALID,917.129,VALID,0,VALID,91.0465,VALID,0,VALID,18.5316,VALID,356,VALID,0,
2010-10-22, 00:07:04,VALID,917.102,VALID,0,VALID,90.8864,VALID,0,VALID,18.5525,VALID,356,VALID,0,
2010-10-22, 00:08:04,VALID,917.113,VALID,0,VALID,90.8635,VALID,0.107441,VALID,18.5705,VALID,356,VALID,0,
2010-10-22, 00:09:04,VALID,917.051,VALID,0,VALID,90.6348,VALID,0,VALID,18.5511,VALID,356,VALID,0,
2010-10-22, 00:10:04,VALID,917.058,VALID,0,VALID,91.0007,VALID,0,VALID,18.5705,VALID,356,VALID,0.328906,
2010-10-22, 00:11:04,VALID,917.079,VALID,0,VALID,91.4429,VALID,0,VALID,18.5316,VALID,356,VALID,0.639844,
2010-10-22, 00:12:04,VALID,917.04,VALID,0,VALID,91.3285,VALID,0,VALID,18.5316,VALID,356,VALID,0.641406,
2010-10-22, 00:13:04,VALID,917.036,VALID,0,VALID,90.8635,VALID,0,VALID,18.572,VALID,356,VALID,0.480859,
2010-10-22, 00:14:04,VALID,917.037,VALID,0,VALID,89.598,VALID,0,VALID,18.572,VALID,356,VALID,0.280859,
2010-10-22, 00:15:04,VALID,917.008,VALID,0,VALID,90.4823,VALID,0,VALID,18.5525,VALID,356,VALID,0.294531,
2010-10-22, 00:16:04,VALID,917.011,VALID,0,VALID,90.6348,VALID,0,VALID,18.5525,VALID,356,VALID,0.174609,
2010-10-22, 00:17:04,VALID,916.994,VALID,0,VALID,89.7352,VALID,0,VALID,18.5121,VALID,356,VALID,0,
2010-10-22, 00:18:04,VALID,917.009,VALID,0,VALID,89.1025,VALID,0,VALID,18.5525,VALID,356,VALID,0,
2010-10-22, 00:19:04,VALID,916.981,VALID,0,VALID,89.7581,VALID,0,VALID,18.533,VALID,356,VALID,0,
2010-10-22, 00:20:04,VALID,916.989,VALID,0,VALID,89.9792,VALID,0,VALID,18.533,VALID,356,VALID,0,
2010-10-22, 00:21:04,VALID,916.962,VALID,0,VALID,89.5446,VALID,0,VALID,18.533,VALID,356,VALID,0,
2010-10-22, 00:22:04,VALID,916.94,VALID,0,VALID,89.659,VALID,0,VALID,18.5525,VALID,356,VALID,0,
2010-10-22, 00:23:04,VALID,916.919,VALID,0,VALID,89.7886,VALID,0,VALID,18.533,VALID,356,VALID,0.353906,
2010-10-22, 00:24:04,VALID,916.928,VALID,0,VALID,90.1316,VALID,0,VALID,18.4731,VALID,356,VALID,0.449609,
2010-10-22, 00:25:04,VALID,916.853,VALID,0,VALID,89.9563,VALID,0.107441,VALID,18.4341,VALID,356,VALID,0.532031,
2010-10-22, 00:26:04,VALID,916.836,VALID,0,VALID,90.3222,VALID,0.107441,VALID,18.3951,VALID,356,VALID,0.422266,
2010-10-22, 00:27:04,VALID,916.851,VALID,0,VALID,90.5814,VALID,0.107441,VALID,18.4355,VALID,356,VALID,0.524219,
2010-10-22, 00:28:04,VALID,916.816,VALID,0,VALID,90.5509,VALID,0,VALID,18.416,VALID,356,VALID,0.227344,
2010-10-22, 00:29:04,VALID,916.825,VALID,0,VALID,90.8254,VALID,0,VALID,18.416,VALID,356,VALID,0.0859375,
2010-10-22, 00:30:04,VALID,916.812,VALID,0,VALID,90.4899,VALID,0,VALID,18.3965,VALID,356,VALID,0,
2010-10-22, 00:31:04,VALID,916.798,VALID,0,VALID,90.894,VALID,0.107441,VALID,18.3561,VALID,356,VALID,0,
2010-10-22, 00:32:04,VALID,916.815,VALID,0,VALID,91.4276,VALID,0.107441,VALID,18.3561,VALID,356,VALID,0,
2010-10-22, 00:33:04,VALID,916.807,VALID,0,VALID,91.1303,VALID,0,VALID,18.3366,VALID,356,VALID,0,
2010-10-22, 00:34:04,VALID,916.772,VALID,0,VALID,91.664,VALID,0,VALID,18.338,VALID,356,VALID,0.108203,
2010-10-22, 00:35:04,VALID,916.767,VALID,0,VALID,91.3743,VALID,0.107441,VALID,18.2601,VALID,356,VALID,0.300781,
2010-10-22, 00:36:04,VALID,916.756,VALID,0,VALID,91.946,VALID,0,VALID,18.2796,VALID,356,VALID,0.5125,
2010-10-22, 00:37:04,VALID,916.755,VALID,0,VALID,92.4415,VALID,0,VALID,18.2587,VALID,356,VALID,0.65,
2010-10-22, 00:38:04,VALID,916.724,VALID,0,VALID,93.2649,VALID,0,VALID,18.3185,VALID,356,VALID,0.792188,
2010-10-22, 00:39:04,VALID,916.718,VALID,0,VALID,93.1429,VALID,0,VALID,18.3756,VALID,356,VALID,0.704687,
2010-10-22, 00:40:04,VALID,916.716,VALID,0,VALID,92.3272,VALID,0,VALID,18.4341,VALID,356,VALID,0.625,
2010-10-22, 00:41:04,VALID,916.691,VALID,0,VALID,91.8317,VALID,0,VALID,18.5734,VALID,356,VALID,0.507422,
2010-10-22, 00:42:04,VALID,916.654,VALID,0,VALID,91.4581,VALID,0,VALID,18.5734,VALID,356,VALID,0.408594,
2010-10-22, 00:43:04,VALID,916.649,VALID,0,VALID,91.2752,VALID,0,VALID,18.572,VALID,356,VALID,0.763672,
2010-10-22, 00:44:04,VALID,916.659,VALID,0,VALID,88.5002,VALID,0,VALID,18.5525,VALID,356,VALID,0.406641,
2010-10-22, 00:45:04,VALID,916.669,VALID,0,VALID,89.3693,VALID,0,VALID,18.4745,VALID,356,VALID,0.204297,
2010-10-22, 00:46:04,VALID,916.636,VALID,0,VALID,89.4608,VALID,0,VALID,18.3575,VALID,356,VALID,0.132813,
2010-10-22, 00:47:04,VALID,916.599,VALID,0,VALID,89.3846,VALID,0,VALID,18.338,VALID,356,VALID,0,
2010-10-22, 00:48:04,VALID,916.596,VALID,0,VALID,90.6043,VALID,0,VALID,18.2392,VALID,356,VALID,0,
2010-10-22, 00:49:04,VALID,916.614,VALID,0,VALID,90.5509,VALID,0,VALID,18.1821,VALID,356,VALID,0.264844,
2010-10-22, 00:50:04,VALID,916.597,VALID,0,VALID,91.5801,VALID,0,VALID,18.1431,VALID,356,VALID,0.302734,
2010-10-22, 00:51:04,VALID,916.599,VALID,0,VALID,92.4187,VALID,0,VALID,18.1041,VALID,356,VALID,0.198047,
2010-10-22, 00:52:04,VALID,916.587,VALID,0,VALID,92.4492,VALID,0,VALID,18.0443,VALID,356,VALID,0,
2010-10-22, 00:53:04,VALID,916.556,VALID,0,VALID,92.129,VALID,0.107441,VALID,18.0457,VALID,356,VALID,0,
2010-10-22, 00:54:04,VALID,916.562,VALID,0,VALID,92.2357,VALID,0,VALID,18.0053,VALID,356,VALID,0.417578,
2010-10-22, 00:55:04,VALID,916.539,VALID,0,VALID,93.0133,VALID,0,VALID,18.0651,VALID,356,VALID,0.757422,
2010-10-22, 00:56:04,VALID,916.522,VALID,0,VALID,92.9294,VALID,0,VALID,18.1041,VALID,356,VALID,0.857422,
2010-10-22, 00:57:04,VALID,916.498,VALID,0,VALID,92.5483,VALID,0,VALID,18.1626,VALID,356,VALID,1,
2010-10-22, 00:58:04,VALID,916.502,VALID,0,VALID,92.2128,VALID,0,VALID,18.1626,VALID,356,VALID,1.18086,
2010-10-22, 00:59:04,VALID,916.493,VALID,0,VALID,92.0223,VALID,0,VALID,18.1028,VALID,357,VALID,1.22422,
2010-10-22, 01:00:04,VALID,916.462,VALID,0,VALID,92.7693,VALID,0,VALID,18.1236,VALID,357,VALID,1.20742,
2010-10-22, 01:01:04,VALID,916.447,VALID,0,VALID,93.3868,VALID,0,VALID,18.1222,VALID,357,VALID,1.02109,
2010-10-22, 01:02:04,VALID,916.442,VALID,0,VALID,93.4936,VALID,0,VALID,18.1626,VALID,357,VALID,0.564453,
2010-10-22, 01:03:04,VALID,916.412,VALID,0,VALID,93.0819,VALID,0,VALID,18.1417,VALID,357,VALID,0.408203,
2010-10-22, 01:04:04,VALID,916.414,VALID,0,VALID,93.2801,VALID,0,VALID,18.1626,VALID,357,VALID,0.841406,
2010-10-22, 01:05:04,VALID,916.382,VALID,0,VALID,93.3792,VALID,0,VALID,18.1821,VALID,357,VALID,0.776563,
2010-10-22, 01:06:04,VALID,916.37,VALID,0,VALID,93.1124,VALID,0.107441,VALID,18.1807,VALID,357,VALID,0.805469,
2010-10-22, 01:07:04,VALID,916.319,VALID,0,VALID,93.242,VALID,0,VALID,18.2016,VALID,357,VALID,0.536719,
2010-10-22, 01:08:04,VALID,916.302,VALID,0,VALID,93.1581,VALID,0,VALID,18.1807,VALID,357,VALID,0.435547,
2010-10-22, 01:09:04,VALID,916.253,VALID,0,VALID,93.0895,VALID,0,VALID,18.1612,VALID,357,VALID,0.587891,
2010-10-22, 01:10:04,VALID,916.281,VALID,0,VALID,93.7451,VALID,0,VALID,18.1821,VALID,357,VALID,0.699219,
2010-10-22, 01:11:04,VALID,916.24,VALID,0,VALID,93.6994,VALID,0,VALID,18.1821,VALID,357,VALID,0.824609,
2010-10-22, 01:12:04,VALID,916.223,VALID,0,VALID,93.6537,VALID,0,VALID,18.2016,VALID,357,VALID,0.983984,
2010-10-22, 01:13:04,VALID,916.191,VALID,0,VALID,93.2039,VALID,0,VALID,18.2002,VALID,357,VALID,0.930078,
2010-10-22, 01:14:04,VALID,916.18,VALID,0,VALID,93.0362,VALID,0,VALID,18.1821,VALID,357,VALID,1.06523,
2010-10-22, 01:15:04,VALID,916.184,VALID,0,VALID,92.9904,VALID,0,VALID,18.1626,VALID,357,VALID,1.05313,
2010-10-22, 01:16:04,VALID,916.151,VALID,0,VALID,93.1124,VALID,0,VALID,18.1626,VALID,357,VALID,1.05117,
2010-10-22, 01:17:04,VALID,916.106,VALID,0,VALID,92.8075,VALID,0,VALID,18.1236,VALID,357,VALID,0.771484,
2010-10-22, 01:18:04,VALID,916.108,VALID,0,VALID,93.303,VALID,0,VALID,18.125,VALID,358,VALID,1.00742,
2010-10-22, 01:19:04,VALID,916.123,VALID,0,VALID,93.3487,VALID,0,VALID,18.1041,VALID,358,VALID,0.989844,
2010-10-22, 01:20:04,VALID,916.098,VALID,0,VALID,93.1353,VALID,0,VALID,18.0846,VALID,358,VALID,0.870313,
2010-10-22, 01:21:04,VALID,916.06,VALID,0,VALID,93.3411,VALID,0,VALID,18.0651,VALID,358,VALID,0.998047,
2010-10-22, 01:22:04,VALID,916.035,VALID,0,VALID,93.5012,VALID,0,VALID,18.0457,VALID,358,VALID,1.1293,
2010-10-22, 01:23:04,VALID,916.039,VALID,0,VALID,93.4936,VALID,0,VALID,18.0457,VALID,358,VALID,1.15391,
2010-10-22, 01:24:04,VALID,915.988,VALID,0,VALID,93.4783,VALID,0,VALID,18.0053,VALID,358,VALID,1.11133,
2010-10-22, 01:25:04,VALID,915.967,VALID,0,VALID,93.5317,VALID,0,VALID,18.0262,VALID,358,VALID,1.2043,
2010-10-22, 01:26:04,VALID,915.966,VALID,0,VALID,93.425,VALID,0,VALID,17.9872,VALID,144,VALID,1.19453,
2010-10-22, 01:27:04,VALID,915.984,VALID,0,VALID,93.4097,VALID,0,VALID,17.9677,VALID,144,VALID,0.9875,
2010-10-22, 01:28:04,VALID,915.993,VALID,0,VALID,93.707,VALID,0,VALID,17.9482,VALID,144,VALID,1.08008,
2010-10-22, 01:29:04,VALID,916.008,VALID,0,VALID,93.6842,VALID,0,VALID,17.9482,VALID,144,VALID,0.558203,
2010-10-22, 01:30:04,VALID,915.987,VALID,0,VALID,93.7299,VALID,0,VALID,17.9482,VALID,144,VALID,0.802344,
2010-10-22, 01:31:04,VALID,916.001,VALID,0,VALID,93.9129,VALID,0,VALID,17.9092,VALID,144,VALID,0.932813,
2010-10-22, 01:32:04,VALID,916,VALID,0,VALID,94.2712,VALID,0,VALID,17.8702,VALID,144,VALID,0.866406,
2010-10-22, 01:33:04,VALID,915.981,VALID,0,VALID,94.5075,VALID,0,VALID,17.8313,VALID,144,VALID,0.807813,
2010-10-22, 01:34:04,VALID,915.955,VALID,0,VALID,94.7972,VALID,0,VALID,17.8313,VALID,144,VALID,0.455469,
2010-10-22, 01:35:04,VALID,915.923,VALID,0,VALID,94.9573,VALID,0,VALID,17.8313,VALID,144,VALID,0.848047,
2010-10-22, 01:36:04,VALID,915.945,VALID,0,VALID,95.0869,VALID,0,VALID,17.8313,VALID,144,VALID,0.675391,
2010-10-22, 01:37:04,VALID,915.896,VALID,0,VALID,95.0792,VALID,0,VALID,17.8313,VALID,144,VALID,0.464844,
2010-10-22, 01:38:04,VALID,915.88,VALID,0,VALID,95.064,VALID,0,VALID,17.8313,VALID,144,VALID,0.582422,
2010-10-22, 01:39:04,VALID,915.88,VALID,0,VALID,95.0488,VALID,0,VALID,17.8716,VALID,144,VALID,0.524609,
2010-10-22, 01:40:04,VALID,915.893,VALID,0,VALID,95.0564,VALID,0,VALID,17.8702,VALID,144,VALID,0.582031,
2010-10-22, 01:41:04,VALID,915.876,VALID,0,VALID,94.9801,VALID,0,VALID,17.8897,VALID,144,VALID,0.580078,
2010-10-22, 01:42:04,VALID,915.897,VALID,0,VALID,95.0259,VALID,0,VALID,17.9287,VALID,144,VALID,0.871484,
2010-10-22, 01:43:04,VALID,915.908,VALID,0,VALID,94.8658,VALID,0,VALID,17.9482,VALID,144,VALID,0.642578,
2010-10-22, 01:44:04,VALID,915.89,VALID,0,VALID,94.6218,VALID,0,VALID,17.9677,VALID,144,VALID,0.838281,
2010-10-22, 01:45:04,VALID,915.887,VALID,0,VALID,94.5227,VALID,0,VALID,18.0262,VALID,144,VALID,0.921094,
2010-10-22, 01:46:04,VALID,915.852,VALID,0,VALID,94.4313,VALID,0,VALID,18.0457,VALID,144,VALID,0.879687,
2010-10-22, 01:47:04,VALID,915.831,VALID,0,VALID,94.2635,VALID,0,VALID,18.086,VALID,144,VALID,0.675781,
2010-10-22, 01:48:04,VALID,915.827,VALID,0,VALID,94.1949,VALID,0,VALID,18.1041,VALID,144,VALID,0.835938,
2010-10-22, 01:49:04,VALID,915.821,VALID,0,VALID,94.1873,VALID,0,VALID,18.1236,VALID,144,VALID,0.420703,
2010-10-22, 01:50:04,VALID,915.811,VALID,0,VALID,94.0958,VALID,0,VALID,18.1626,VALID,144,VALID,0.6625,
2010-10-22, 01:51:04,VALID,915.788,VALID,0,VALID,94.0272,VALID,0,VALID,18.1821,VALID,144,VALID,0.748047,
2010-10-22, 01:52:04,VALID,915.788,VALID,0,VALID,93.9434,VALID,0,VALID,18.2016,VALID,144,VALID,0.705078,
2010-10-22, 01:53:04,VALID,915.783,VALID,0,VALID,93.6918,VALID,0,VALID,18.2406,VALID,144,VALID,0.942187,
2010-10-22, 01:54:04,VALID,915.791,VALID,0,VALID,93.4555,VALID,0,VALID,18.2601,VALID,144,VALID,0.528906,
2010-10-22, 01:55:04,VALID,915.775,VALID,0,VALID,93.2039,VALID,0,VALID,18.2796,VALID,144,VALID,0.585547,
2010-10-22, 01:56:04,VALID,915.766,VALID,0,VALID,93.0133,VALID,0,VALID,18.2796,VALID,144,VALID,0.632031,
2010-10-22, 01:57:04,VALID,915.761,VALID,0,VALID,92.9294,VALID,0,VALID,18.299,VALID,144,VALID,0.769531,
2010-10-22, 01:58:04,VALID,915.706,VALID,0,VALID,92.7236,VALID,0,VALID,18.299,VALID,144,VALID,0.744531,
2010-10-22, 01:59:04,VALID,915.733,VALID,0,VALID,92.5788,VALID,0,VALID,18.3185,VALID,144,VALID,0.805469,
2010-10-22, 02:00:04,VALID,915.73,VALID,0,VALID,92.5635,VALID,0,VALID,18.299,VALID,144,VALID,0.8125,
2010-10-22, 02:01:04,VALID,915.716,VALID,0,VALID,92.8151,VALID,0,VALID,18.3185,VALID,144,VALID,1.00352,
2010-10-22, 02:02:04,VALID,915.726,VALID,0,VALID,92.7693,VALID,0,VALID,18.3185,VALID,144,VALID,0.731641,
2010-10-22, 02:03:04,VALID,915.706,VALID,0,VALID,92.9371,VALID,0,VALID,18.3575,VALID,144,VALID,1.00117,
2010-10-22, 02:04:04,VALID,915.66,VALID,0,VALID,92.8913,VALID,0,VALID,18.377,VALID,144,VALID,0.731641,
2010-10-22, 02:05:04,VALID,915.673,VALID,0,VALID,92.7465,VALID,0,VALID,18.377,VALID,144,VALID,0.938672,
2010-10-22, 02:06:04,VALID,915.66,VALID,0,VALID,92.7007,VALID,0,VALID,18.3965,VALID,144,VALID,0.714844,
2010-10-22, 02:07:04,VALID,915.622,VALID,0,VALID,92.6016,VALID,0,VALID,18.3965,VALID,144,VALID,0.600391,
2010-10-22, 02:08:04,VALID,915.656,VALID,0,VALID,92.3958,VALID,0,VALID,18.3965,VALID,144,VALID,0.492578,
2010-10-22, 02:09:04,VALID,915.683,VALID,0,VALID,92.3882,VALID,0,VALID,18.416,VALID,144,VALID,0.491016,
2010-10-22, 02:10:04,VALID,915.66,VALID,0,VALID,92.3653,VALID,0,VALID,18.416,VALID,144,VALID,0.350781,
2010-10-22, 02:11:04,VALID,915.671,VALID,0,VALID,92.2662,VALID,0,VALID,18.416,VALID,144,VALID,0.353906,
2010-10-22, 02:12:04,VALID,915.647,VALID,0,VALID,92.3501,VALID,0,VALID,18.4355,VALID,144,VALID,0.770703,
2010-10-22, 02:13:04,VALID,915.643,VALID,0,VALID,92.1442,VALID,0,VALID,18.4759,VALID,144,VALID,0.338672,
2010-10-22, 02:14:04,VALID,915.591,VALID,0,VALID,92.0985,VALID,0,VALID,18.4745,VALID,144,VALID,0.623828,
2010-10-22, 02:15:04,VALID,915.626,VALID,0,VALID,91.9918,VALID,0,VALID,18.494,VALID,144,VALID,0.652344,
2010-10-22, 02:16:04,VALID,915.614,VALID,0,VALID,91.8927,VALID,0,VALID,18.494,VALID,144,VALID,0.746094,
2010-10-22, 02:17:04,VALID,915.606,VALID,0,VALID,91.7783,VALID,0,VALID,18.4954,VALID,144,VALID,0.798437,
2010-10-22, 02:18:04,VALID,915.61,VALID,0,VALID,91.6258,VALID,0,VALID,18.494,VALID,143,VALID,1.02109,
2010-10-22, 02:19:04,VALID,915.564,VALID,0,VALID,91.542,VALID,0,VALID,18.494,VALID,143,VALID,0.913281,
2010-10-22, 02:20:04,VALID,915.613,VALID,0,VALID,91.5496,VALID,0,VALID,18.494,VALID,143,VALID,1.03516,
2010-10-22, 02:21:04,VALID,915.594,VALID,0,VALID,91.4962,VALID,0,VALID,18.5135,VALID,143,VALID,1.06641,
2010-10-22, 02:22:04,VALID,915.594,VALID,0,VALID,91.3285,VALID,0,VALID,18.5135,VALID,143,VALID,0.958984,
2010-10-22, 02:23:04,VALID,915.597,VALID,0,VALID,91.3438,VALID,0,VALID,18.5135,VALID,143,VALID,1.3207,
2010-10-22, 02:24:04,VALID,915.586,VALID,0,VALID,91.3133,VALID,0,VALID,18.494,VALID,143,VALID,1.41055,
2010-10-22, 02:25:04,VALID,915.574,VALID,0,VALID,91.3209,VALID,0,VALID,18.455,VALID,143,VALID,0.733203,
2010-10-22, 02:26:04,VALID,915.598,VALID,0,VALID,91.2066,VALID,0,VALID,18.4355,VALID,143,VALID,0.622266,
2010-10-22, 02:27:04,VALID,915.57,VALID,0,VALID,91.1761,VALID,0,VALID,18.3756,VALID,143,VALID,0.318359,
2010-10-22, 02:28:04,VALID,915.567,VALID,0,VALID,91.7935,VALID,0,VALID,18.377,VALID,143,VALID,0.712109,
2010-10-22, 02:29:04,VALID,915.547,VALID,0,VALID,92.2662,VALID,0,VALID,18.3185,VALID,143,VALID,0.971484,
2010-10-22, 02:30:04,VALID,915.545,VALID,0,VALID,92.5711,VALID,0,VALID,18.3185,VALID,142,VALID,0.915625,
2010-10-22, 02:31:04,VALID,915.536,VALID,0,VALID,92.4415,VALID,0,VALID,18.2601,VALID,142,VALID,0.774609,
2010-10-22, 02:32:04,VALID,915.535,VALID,0,VALID,92.4797,VALID,0,VALID,18.2197,VALID,142,VALID,0.635547,
2010-10-22, 02:33:04,VALID,915.522,VALID,0,VALID,92.9142,VALID,0,VALID,18.2016,VALID,141,VALID,0.560938,
2010-10-22, 02:34:04,VALID,915.53,VALID,0,VALID,93.1505,VALID,0,VALID,18.2016,VALID,141,VALID,0.464453,
2010-10-22, 02:35:04,VALID,915.505,VALID,0,VALID,93.2344,VALID,0,VALID,18.1807,VALID,141,VALID,0.610156,
2010-10-22, 02:36:04,VALID,915.516,VALID,0,VALID,93.2572,VALID,0,VALID,18.2016,VALID,141,VALID,0.779297,
2010-10-22, 02:37:04,VALID,915.477,VALID,0,VALID,93.1048,VALID,0,VALID,18.2016,VALID,141,VALID,0.662891,
2010-10-22, 02:38:04,VALID,915.461,VALID,0,VALID,92.9599,VALID,0,VALID,18.2211,VALID,141,VALID,0.53125,
2010-10-22, 02:39:04,VALID,915.456,VALID,0,VALID,92.8456,VALID,0,VALID,18.2002,VALID,141,VALID,0.376953,
2010-10-22, 02:40:04,VALID,915.436,VALID,0,VALID,93.0819,VALID,0,VALID,18.2211,VALID,141,VALID,0.507813,
2010-10-22, 02:41:04,VALID,915.443,VALID,0,VALID,92.9142,VALID,0,VALID,18.2016,VALID,141,VALID,0.636719,
2010-10-22, 02:42:04,VALID,915.418,VALID,0,VALID,92.9066,VALID,0,VALID,18.1821,VALID,141,VALID,0.869922,
2010-10-22, 02:43:04,VALID,915.421,VALID,0,VALID,93.2496,VALID,0,VALID,18.2016,VALID,141,VALID,0.917188,
2010-10-22, 02:44:04,VALID,915.406,VALID,0,VALID,93.181,VALID,0,VALID,18.2016,VALID,141,VALID,0.871875,
2010-10-22, 02:45:04,VALID,915.414,VALID,0,VALID,92.7389,VALID,0.107441,VALID,18.1612,VALID,141,VALID,0.697266,
2010-10-22, 02:46:04,VALID,915.415,VALID,0,VALID,93.0895,VALID,0,VALID,18.1041,VALID,141,VALID,0.555078,
2010-10-22, 02:47:04,VALID,915.459,VALID,0,VALID,93.181,VALID,0,VALID,18.0457,VALID,141,VALID,0.512109,
2010-10-22, 02:48:04,VALID,915.445,VALID,0,VALID,93.181,VALID,0,VALID,17.9677,VALID,141,VALID,0.480078,
2010-10-22, 02:49:04,VALID,915.452,VALID,0,VALID,93.3945,VALID,0,VALID,17.8897,VALID,141,VALID,0.498047,
2010-10-22, 02:50:04,VALID,915.418,VALID,0,VALID,93.7147,VALID,0,VALID,17.8118,VALID,141,VALID,0.517969,
2010-10-22, 02:51:04,VALID,915.434,VALID,0,VALID,94.3779,VALID,0,VALID,17.7714,VALID,141,VALID,0.866016,
2010-10-22, 02:52:04,VALID,915.393,VALID,0,VALID,94.7819,VALID,0,VALID,17.7923,VALID,141,VALID,1.2082,
2010-10-22, 02:53:04,VALID,915.395,VALID,0,VALID,94.82,VALID,0,VALID,17.8104,VALID,128,VALID,1.18281,
2010-10-22, 02:54:04,VALID,915.365,VALID,0,VALID,94.6142,VALID,0,VALID,17.8508,VALID,103,VALID,1.19492,
2010-10-22, 02:55:04,VALID,915.357,VALID,0,VALID,94.2559,VALID,0,VALID,17.7909,VALID,103,VALID,1.20039,
2010-10-22, 02:56:04,VALID,915.331,VALID,0,VALID,94.4236,VALID,0,VALID,17.8313,VALID,103,VALID,1.39023,
2010-10-22, 02:57:04,VALID,915.344,VALID,0,VALID,94.4465,VALID,0,VALID,17.8702,VALID,103,VALID,1.21953,
2010-10-22, 02:58:04,VALID,915.326,VALID,0,VALID,94.0272,VALID,0,VALID,17.9092,VALID,103,VALID,1.12383,
2010-10-22, 02:59:04,VALID,915.355,VALID,0,VALID,93.9357,VALID,0,VALID,17.9287,VALID,103,VALID,0.80625,
2010-10-22, 03:00:04,VALID,915.291,VALID,0,VALID,94.0348,VALID,0,VALID,17.9482,VALID,103,VALID,0.882422,
2010-10-22, 03:01:04,VALID,915.326,VALID,0,VALID,94.012,VALID,0,VALID,17.9691,VALID,103,VALID,0.695313,
2010-10-22, 03:02:04,VALID,915.334,VALID,0,VALID,93.7909,VALID,0,VALID,17.9482,VALID,103,VALID,0.731641,
2010-10-22, 03:03:04,VALID,915.305,VALID,0,VALID,93.6308,VALID,0,VALID,17.9677,VALID,103,VALID,0.604688,
2010-10-22, 03:04:04,VALID,915.302,VALID,0,VALID,93.5088,VALID,0,VALID,18.008,VALID,103,VALID,0.7375,
2010-10-22, 03:05:04,VALID,915.321,VALID,0,VALID,93.425,VALID,0,VALID,18.0262,VALID,103,VALID,0.716016,
2010-10-22, 03:06:04,VALID,915.311,VALID,0,VALID,93.3487,VALID,0,VALID,18.0457,VALID,103,VALID,0.5625,
2010-10-22, 03:07:04,VALID,915.321,VALID,0,VALID,92.4187,VALID,0,VALID,18.0067,VALID,103,VALID,0,
2010-10-22, 03:08:04,VALID,915.329,VALID,0,VALID,91.7326,VALID,0,VALID,17.9482,VALID,103,VALID,0,
2010-10-22, 03:09:04,VALID,915.318,VALID,0,VALID,92.5406,VALID,0,VALID,17.8897,VALID,103,VALID,0,
2010-10-22, 03:10:04,VALID,915.307,VALID,0,VALID,93.0667,VALID,0,VALID,17.8702,VALID,103,VALID,0.379687,
2010-10-22, 03:11:04,VALID,915.311,VALID,0,VALID,93.7909,VALID,0,VALID,17.8702,VALID,103,VALID,0.500781,
2010-10-22, 03:12:04,VALID,915.292,VALID,0,VALID,94.0882,VALID,0,VALID,17.8702,VALID,103,VALID,0.53125,
2010-10-22, 03:13:04,VALID,915.299,VALID,0,VALID,94.2026,VALID,0,VALID,17.8897,VALID,103,VALID,0.470703,
2010-10-22, 03:14:04,VALID,915.306,VALID,0,VALID,94.1187,VALID,0,VALID,17.8689,VALID,103,VALID,0.563672,
2010-10-22, 03:15:04,VALID,915.33,VALID,0,VALID,93.9815,VALID,0,VALID,17.9092,VALID,103,VALID,0.674219,
2010-10-22, 03:16:04,VALID,915.322,VALID,0,VALID,93.8595,VALID,0.107441,VALID,17.9287,VALID,103,VALID,0.583594,
2010-10-22, 03:17:04,VALID,915.303,VALID,0,VALID,93.8366,VALID,0,VALID,17.9677,VALID,103,VALID,0.597656,
2010-10-22, 03:18:04,VALID,915.305,VALID,0,VALID,93.7147,VALID,0,VALID,17.9872,VALID,103,VALID,0.505078,
2010-10-22, 03:19:04,VALID,915.282,VALID,0,VALID,93.5012,VALID,0,VALID,17.9872,VALID,103,VALID,0.444922,
2010-10-22, 03:20:04,VALID,915.289,VALID,0,VALID,93.2344,VALID,0,VALID,18.0457,VALID,103,VALID,0.744531,
2010-10-22, 03:21:04,VALID,915.25,VALID,0,VALID,92.838,VALID,0,VALID,18.0846,VALID,103,VALID,0.573438,
2010-10-22, 03:22:04,VALID,915.256,VALID,0,VALID,92.4797,VALID,0,VALID,18.1431,VALID,103,VALID,0.629687,
2010-10-22, 03:23:04,VALID,915.244,VALID,0,VALID,92.251,VALID,0,VALID,18.1626,VALID,103,VALID,0.397656,
2010-10-22, 03:24:04,VALID,915.244,VALID,0,VALID,92.068,VALID,0,VALID,18.1626,VALID,103,VALID,0.333203,
2010-10-22, 03:25:04,VALID,915.255,VALID,0,VALID,91.3057,VALID,0,VALID,18.1041,VALID,103,VALID,0.316406,
2010-10-22, 03:26:04,VALID,915.253,VALID,0,VALID,92.1519,VALID,0.107441,VALID,18.0651,VALID,103,VALID,0.320313,
2010-10-22, 03:27:04,VALID,915.255,VALID,0,VALID,92.4644,VALID,0,VALID,17.9872,VALID,103,VALID,0.4125,
2010-10-22, 03:28:04,VALID,915.24,VALID,0,VALID,92.8761,VALID,0,VALID,17.9677,VALID,103,VALID,0.732813,
2010-10-22, 03:29:04,VALID,915.203,VALID,0,VALID,92.8685,VALID,0,VALID,18.0457,VALID,103,VALID,1.02695,
2010-10-22, 03:30:04,VALID,915.193,VALID,0,VALID,92.4034,VALID,0,VALID,18.1236,VALID,103,VALID,0.990625,
2010-10-22, 03:31:04,VALID,915.187,VALID,0,VALID,91.7631,VALID,0,VALID,18.1821,VALID,103,VALID,0.961719,
2010-10-22, 03:32:04,VALID,915.188,VALID,0,VALID,91.481,VALID,0,VALID,18.2615,VALID,103,VALID,0.9,
2010-10-22, 03:33:04,VALID,915.201,VALID,0,VALID,91.1684,VALID,0,VALID,18.2601,VALID,103,VALID,0.821875,
2010-10-22, 03:34:04,VALID,915.209,VALID,0,VALID,90.8635,VALID,0,VALID,18.3004,VALID,103,VALID,0.669531,
2010-10-22, 03:35:04,VALID,915.2,VALID,0,VALID,90.4747,VALID,0,VALID,18.299,VALID,103,VALID,0.839844,
2010-10-22, 03:36:04,VALID,915.206,VALID,0,VALID,90.1698,VALID,0,VALID,18.338,VALID,103,VALID,0.689062,
2010-10-22, 03:37:04,VALID,915.188,VALID,0,VALID,89.781,VALID,0,VALID,18.3394,VALID,103,VALID,0.522656,
2010-10-22, 03:38:04,VALID,915.168,VALID,0,VALID,90.1621,VALID,0,VALID,18.3199,VALID,103,VALID,0.590625,
2010-10-22, 03:39:04,VALID,915.193,VALID,0,VALID,90.0935,VALID,0,VALID,18.2809,VALID,103,VALID,0.460547,
2010-10-22, 03:40:04,VALID,915.173,VALID,0,VALID,90.2994,VALID,0,VALID,18.2211,VALID,103,VALID,0.607813,
2010-10-22, 03:41:04,VALID,915.195,VALID,0,VALID,90.5738,VALID,0,VALID,18.1835,VALID,103,VALID,0.391016,
2010-10-22, 03:42:04,VALID,915.182,VALID,0,VALID,90.6195,VALID,0,VALID,18.1445,VALID,103,VALID,0.413672,
2010-10-22, 03:43:04,VALID,915.172,VALID,0,VALID,90.7873,VALID,0,VALID,18.1236,VALID,103,VALID,0.229687,
2010-10-22, 03:44:04,VALID,915.168,VALID,0,VALID,90.9855,VALID,0,VALID,18.1236,VALID,103,VALID,0.233203,
2010-10-22, 03:45:04,VALID,915.133,VALID,0,VALID,90.5586,VALID,0,VALID,18.1041,VALID,103,VALID,0,
2010-10-22, 03:46:04,VALID,915.161,VALID,0,VALID,90.4518,VALID,0,VALID,18.1041,VALID,103,VALID,0,